[[{"header":{"parameterUnit":"m.s-1","parameterCategory":1,"la1":30.2991,"la2":30.254,"lo1":-89.0895,"lo2":-89.0444,"dy":0.0017,"dx":0.0017,"nx":28,"ny":28,"refTime":"2023-04-17T15:00:00:Z","depth":0,"parameterNumber":2,"parameterNumberName":"U-component_of_WINDS"},"data":[0,0,0,0,0,0,0,0,0,0,0,0,0,0,0,0,0,0,0,0,0,0,0,0,0,0,0,0,0,0,0,0,0,0,0,0,0,0,0,0,0,0,0,0,0,0,0,0,0,0,0,0,0,0,0,0,0,0,-1.6213,-1.6213,0,-1.6213,-1.6213,-1.6213,-1.6154,-1.6153,-1.6151,-1.615,-1.6149,-1.6151,-1.6152,0,0,0,0,0,0,0,0,0,0,0,0,0,-1.6163,-1.6164,-1.6213,-1.6213,-1.6213,-1.6213,-1.6213,-1.6213,-1.6155,-1.6153,-1.6151,-1.6149,-1.6149,-1.6151,-1.6152,0,0,0,0,0,0,0,0,0,0,0,0,0,-1.6176,-1.6165,-1.6213,-1.6184,-1.6181,-1.6213,-1.6213,-1.6213,-1.6155,-1.6153,-1.615,-1.6148,-1.6148,-1.615,-1.6153,-1.6212,0,0,-1.6159,-1.616,0,0,0,0,0,0,0,0,-1.6175,-1.6178,-1.6188,-1.6186,-1.6183,-1.6181,-1.6195,-1.6213,-1.6156,-1.6165,-1.615,-1.6147,-1.6162,-1.6163,-1.6168,-1.6212,-1.6212,-1.6159,-1.6161,-1.6161,-1.6162,0,0,0,0,0,0,0,-1.6174,-1.6178,-1.6213,-1.6188,-1.6185,-1.6171,-1.617,-1.6198,-1.6176,-1.6164,-1.616,-1.6161,-1.616,-1.6166,-1.6167,-1.6212,-1.6159,-1.6161,-1.6162,-1.6163,-1.6305,-1.6308,0,0,0,0,0,0,-1.6178,-1.6177,-1.6213,-1.6213,-1.6174,-1.6174,-1.6173,-1.6184,-1.6176,-1.6172,-1.6163,-1.6158,-1.6163,-1.6165,-1.6167,-1.6236,-1.6161,-1.6163,-1.6165,-1.6303,-1.6306,-1.6309,0,0,0,0,0,0,-1.6177,-1.6181,-1.6213,-1.6194,-1.6197,-1.6177,-1.619,-1.6185,-1.6191,-1.6175,-1.6171,-1.6173,-1.6162,-1.6164,-1.6201,-1.6235,-1.6164,-1.6166,-1.63,-1.6304,-1.6307,-1.6375,0,0,0,0,0,0,-1.6176,-1.6181,-1.6204,-1.6195,-1.6198,-1.6247,-1.6192,-1.6187,-1.6195,-1.6189,-1.6183,-1.618,-1.616,-1.6199,-1.6204,-1.6237,-1.6168,-1.6297,-1.6302,-1.6306,-1.637,-1.6381,-1.639,0,0,0,0,0,-1.6174,-1.6222,-1.6205,-1.621,-1.6225,-1.6249,-1.6251,-1.6228,-1.6198,-1.622,-1.621,-1.618,-1.6231,-1.6203,-1.6208,-1.6243,-1.6294,-1.63,-1.6306,-1.6365,-1.6379,-1.639,0,0,0,0,0,0,-1.6235,-1.6221,-1.6201,-1.6248,-1.6251,-1.6239,-1.6267,-1.6242,-1.6253,-1.6247,-1.6217,-1.6216,-1.6258,-1.6254,-1.6223,-1.63,-1.6258,-1.6264,-1.6301,-1.6314,-1.6324,-1.6324,-1.617,0,0,0,0,0,-1.6254,-1.6275,-1.6261,-1.6304,-1.6306,-1.6287,-1.6296,-1.6278,-1.6279,-1.6279,-1.6272,-1.6274,-1.629,-1.6302,-1.6316,-1.6369,-1.6367,-1.6396,-1.6406,-1.6414,-1.6421,-1.6449,-1.6462,-1.6327,-1.6327,-1.6327,0,0,-1.6293,-1.6288,-1.6303,-1.6316,-1.6316,-1.6338,-1.6288,-1.6313,-1.6329,-1.6283,-1.6318,-1.6313,-1.6313,-1.6359,-1.6379,-1.6357,-1.6458,-1.6422,-1.6428,-1.643,-1.6456,-1.6469,-1.648,-1.6331,-1.633,-1.633,0,0,-1.6376,-1.6374,-1.641,-1.6411,-1.6411,-1.6398,-1.6407,-1.64,-1.6395,-1.643,-1.6396,-1.6415,-1.6444,-1.6446,-1.645,-1.6536,-1.6509,-1.6541,-1.6595,-1.6623,-1.6633,-1.6642,-1.6673,-1.6684,-1.6548,-1.6548,-1.6548,0,-1.6425,-1.6457,-1.6431,-1.646,-1.6467,-1.6427,-1.6463,-1.6465,-1.647,-1.6476,-1.6452,-1.6488,-1.6485,-1.6531,-1.6552,-1.6558,-1.6567,-1.6542,-1.6634,-1.6643,-1.6651,-1.668,-1.6692,-1.6552,-1.6551,-1.6551,-1.6551,0,-1.6517,-1.654,-1.6569,-1.6575,-1.6586,-1.6618,-1.6598,-1.6611,-1.6593,-1.6582,-1.6618,-1.6614,-1.6627,-1.6637,-1.6619,-1.6681,-1.6667,-1.6639,-1.6595,-1.6668,-1.6695,-1.6706,-1.6558,-1.6556,-1.6555,-1.6554,0,0,-1.6637,-1.663,-1.6641,-1.6644,-1.6642,-1.6659,-1.669,-1.6703,-1.6716,-1.6721,-1.6746,-1.6773,-1.6747,-1.6752,-1.6734,-1.6759,-1.6827,-1.6727,-1.6727,-1.6746,-1.6896,-1.6917,-1.693,-1.681,-1.6812,-1.6813,-1.6896,0,-1.6717,-1.6769,-1.6748,-1.6802,-1.6823,-1.6786,-1.6813,-1.6815,-1.6807,-1.6823,-1.6814,-1.6833,-1.6797,-1.6801,-1.6824,-1.6814,-1.6857,-1.6808,-1.6833,-1.6834,-1.6833,-1.6944,-1.6966,-1.7044,-1.6906,-1.6908,-1.6909,0,-1.6817,-1.6827,-1.6884,-1.6879,-1.6888,-1.6912,-1.6923,-1.694,-1.6942,-1.6934,-1.6941,-1.6917,-1.6947,-1.6905,-1.6946,-1.6913,-1.6922,-1.6919,-1.6922,-1.6923,-1.6875,-1.6948,-1.7068,-1.708,-1.6925,-1.6924,-1.6923,0,-1.6899,-1.6927,-1.6964,-1.6968,-1.6964,-1.6982,-1.6981,-1.6981,-1.6991,-1.7,-1.7006,-1.702,-1.7027,-1.7037,-1.7018,-1.6989,-1.7062,-1.7018,-1.7057,-1.7057,-1.7073,-1.7072,-1.7196,-1.708,-1.708,-1.7079,-1.7079,0,-1.6991,-1.7027,-1.7001,-1.7024,-1.7064,-1.704,-1.7079,-1.7074,-1.7075,-1.7096,-1.7065,-1.7086,-1.706,-1.7078,-1.7064,-1.71,-1.7104,-1.7098,-1.7094,-1.7101,-1.7101,-1.7106,-1.71,-1.7082,-1.7082,-1.7081,-1.7081,0,-1.7088,-1.7073,-1.7111,-1.7105,-1.7104,-1.7134,-1.7128,-1.7149,-1.7139,-1.7167,-1.7172,-1.7156,-1.7176,-1.7159,-1.7178,-1.7168,-1.7217,-1.7205,-1.7216,-1.7213,-1.7252,-1.7249,-1.7383,-1.74,-1.7273,-1.7274,-1.7275,0,-1.7147,-1.7174,-1.7171,-1.7184,-1.7185,-1.7205,-1.7215,-1.7193,-1.7205,-1.721,-1.7231,-1.7249,-1.7261,-1.7296,-1.7286,-1.7301,-1.7289,-1.7335,-1.729,-1.7297,-1.7289,-1.7288,-1.729,-1.7343,-1.7345,-1.7346,-1.7347,0,-1.7254,-1.7245,-1.7261,-1.7275,-1.7289,-1.7298,-1.7305,-1.7317,-1.7294,-1.7309,-1.733,-1.734,-1.7361,-1.7379,-1.7391,-1.739,-1.7365,-1.7362,-1.7371,-1.7378,-1.7384,-1.7381,-1.724,-1.7358,-1.7357,-1.7356,-1.7356,-1.7355,-1.7334,-1.7356,-1.7358,-1.7377,-1.7381,-1.7388,-1.7408,-1.7401,-1.7418,-1.7433,-1.7419,-1.7445,-1.7447,-1.746,-1.7463,-1.7482,-1.7463,-1.7477,-1.748,-1.7484,-1.749,-1.7381,-1.7484,-1.7484,-1.7483,-1.7483,-1.7483,0,-1.7438,-1.7438,-1.7456,-1.7468,-1.7483,-1.746,-1.7467,-1.7481,-1.7504,-1.7508,-1.7522,-1.7546,-1.7564,-1.7557,-1.7572,-1.7589,-1.7578,-1.7594,-1.7592,-1.7593,-1.7506,-1.7496,-1.7603,-1.7603,-1.7603,-1.7603,-1.7603,-1.7603,-1.7495,-1.7532,-1.7524,-1.7563,-1.7562,-1.7587,-1.7593,-1.7601,-1.7604,-1.7633,-1.7648,-1.7643,-1.7643,-1.7658,-1.7674,-1.7671,-1.7678,-1.7698,-1.7691,-1.761,-1.7599,-1.7587,-1.7578,-1.77,-1.77,-1.7776,-1.7777,-1.7777]},{"header":{"parameterUnit":"m.s-1","parameterCategory":1,"la1":30.2991,"la2":30.254,"lo1":-89.0895,"lo2":-89.0444,"dy":0.0017,"dx":0.0017,"nx":28,"ny":28,"refTime":"2023-04-17T15:00:00:Z","depth":0,"parameterNumber":3,"parameterNumberName":"V-component_of_WINDS"},"data":[0,0,0,0,0,0,0,0,0,0,0,0,0,0,0,0,0,0,0,0,0,0,0,0,0,0,0,0,0,0,0,0,0,0,0,0,0,0,0,0,0,0,0,0,0,0,0,0,0,0,0,0,0,0,0,0,0,0,-1.5579,-1.558,0,-1.5664,-1.5665,-1.5666,-1.5689,-1.5688,-1.5688,-1.5687,-1.5774,-1.5777,-1.5779,0,0,0,0,0,0,0,0,0,0,0,0,0,-1.5438,-1.544,-1.5579,-1.558,-1.5581,-1.5663,-1.5665,-1.5666,-1.5689,-1.5688,-1.5688,-1.5687,-1.5773,-1.5776,-1.578,0,0,0,0,0,0,0,0,0,0,0,0,0,-1.5508,-1.5441,-1.5579,-1.5603,-1.5606,-1.5663,-1.5665,-1.5666,-1.5689,-1.5688,-1.5687,-1.5687,-1.5772,-1.5776,-1.578,-1.582,0,0,-1.5793,-1.5795,0,0,0,0,0,0,0,0,-1.5504,-1.5513,-1.5598,-1.5601,-1.5604,-1.5665,-1.5647,-1.5718,-1.5689,-1.5657,-1.5687,-1.5686,-1.5738,-1.5745,-1.5763,-1.5824,-1.5828,-1.5793,-1.5796,-1.5797,-1.5799,0,0,0,0,0,0,0,-1.5499,-1.551,-1.5613,-1.5599,-1.5603,-1.5609,-1.5618,-1.566,-1.5701,-1.566,-1.5662,-1.5672,-1.574,-1.5759,-1.5765,-1.5829,-1.5793,-1.5797,-1.5799,-1.5801,-1.5928,-1.5929,0,0,0,0,0,0,-1.549,-1.5506,-1.561,-1.5615,-1.5552,-1.5612,-1.5622,-1.5646,-1.57,-1.5708,-1.5672,-1.5672,-1.5752,-1.576,-1.5768,-1.5818,-1.5797,-1.5801,-1.5804,-1.5927,-1.5928,-1.5929,0,0,0,0,0,0,-1.5487,-1.5499,-1.5606,-1.5561,-1.5575,-1.5615,-1.5642,-1.5648,-1.5667,-1.571,-1.5717,-1.5684,-1.5752,-1.5762,-1.5807,-1.5822,-1.5803,-1.5807,-1.5926,-1.5927,-1.5929,-1.5919,0,0,0,0,0,0,-1.5483,-1.5498,-1.5514,-1.5561,-1.5577,-1.5644,-1.5643,-1.565,-1.5674,-1.5675,-1.5722,-1.573,-1.5752,-1.5801,-1.5811,-1.5827,-1.581,-1.5925,-1.5927,-1.5928,-1.5919,-1.592,-1.5922,0,0,0,0,0,-1.5478,-1.5508,-1.5514,-1.5527,-1.5598,-1.5645,-1.5654,-1.5679,-1.5675,-1.5691,-1.5719,-1.5728,-1.5818,-1.5805,-1.5817,-1.5834,-1.5924,-1.5926,-1.5928,-1.5918,-1.592,-1.5922,0,0,0,0,0,0,-1.5461,-1.5515,-1.5522,-1.5569,-1.5602,-1.5649,-1.567,-1.568,-1.5716,-1.5715,-1.5745,-1.5755,-1.5798,-1.5821,-1.5805,-1.5876,-1.5871,-1.5876,-1.5859,-1.5862,-1.5863,-1.5857,-1.5814,0,0,0,0,0,-1.5463,-1.5497,-1.5541,-1.5578,-1.5594,-1.5629,-1.565,-1.5667,-1.5703,-1.5717,-1.5748,-1.5782,-1.5818,-1.5841,-1.5877,-1.5922,-1.5933,-1.594,-1.5941,-1.5942,-1.5946,-1.5971,-1.5975,-1.5936,-1.5936,-1.5936,0,0,-1.5467,-1.55,-1.552,-1.5575,-1.5603,-1.5637,-1.5641,-1.5677,-1.5703,-1.5722,-1.5767,-1.579,-1.5831,-1.5876,-1.5897,-1.5896,-1.5959,-1.5945,-1.5946,-1.5949,-1.5974,-1.5977,-1.5981,-1.5937,-1.5937,-1.5937,0,0,-1.5491,-1.552,-1.5553,-1.5581,-1.5623,-1.5646,-1.5654,-1.5699,-1.5716,-1.576,-1.5776,-1.5807,-1.5869,-1.5897,-1.5919,-1.5954,-1.5964,-1.5965,-1.5973,-1.5997,-1.6,-1.6003,-1.6015,-1.6019,-1.5968,-1.5968,-1.5968,0,-1.5491,-1.5543,-1.5569,-1.5604,-1.5628,-1.5648,-1.5682,-1.5708,-1.5759,-1.5775,-1.5773,-1.5851,-1.5879,-1.5931,-1.594,-1.5957,-1.5967,-1.5959,-1.5998,-1.6001,-1.6004,-1.6016,-1.602,-1.5968,-1.5968,-1.5968,-1.5968,0,-1.554,-1.5576,-1.5598,-1.5647,-1.5673,-1.5708,-1.5739,-1.5763,-1.5777,-1.58,-1.5845,-1.588,-1.5923,-1.5937,-1.5951,-1.5991,-1.5989,-1.5992,-1.5988,-1.6007,-1.6018,-1.6023,-1.5968,-1.5968,-1.5968,-1.5968,0,0,-1.5556,-1.5619,-1.5627,-1.5649,-1.5697,-1.5725,-1.576,-1.5802,-1.5822,-1.5857,-1.5887,-1.5939,-1.5942,-1.5967,-1.5985,-1.6006,-1.6031,-1.6007,-1.6008,-1.601,-1.6077,-1.6074,-1.6079,-1.6038,-1.6039,-1.604,-1.6073,0,-1.5586,-1.565,-1.5674,-1.5726,-1.576,-1.5779,-1.5809,-1.5842,-1.5865,-1.5896,-1.5921,-1.5957,-1.5959,-1.5974,-1.5996,-1.6024,-1.6045,-1.6022,-1.6067,-1.6068,-1.6055,-1.6085,-1.6082,-1.6111,-1.6078,-1.6079,-1.6079,0,-1.563,-1.5665,-1.572,-1.5764,-1.5778,-1.5806,-1.5846,-1.5876,-1.5913,-1.5928,-1.5956,-1.5973,-1.601,-1.6004,-1.6056,-1.604,-1.606,-1.6076,-1.6077,-1.6082,-1.6074,-1.609,-1.6122,-1.6126,-1.6087,-1.6086,-1.6086,0,-1.5636,-1.5697,-1.5738,-1.5756,-1.5808,-1.5827,-1.5849,-1.5886,-1.5909,-1.5945,-1.596,-1.5999,-1.6021,-1.6051,-1.6077,-1.607,-1.6127,-1.6123,-1.614,-1.6139,-1.6151,-1.615,-1.6185,-1.6164,-1.6164,-1.6164,-1.6164,0,-1.5667,-1.5699,-1.5741,-1.5766,-1.5803,-1.5831,-1.5867,-1.5891,-1.5923,-1.5953,-1.5973,-1.6,-1.6034,-1.6066,-1.6086,-1.6126,-1.6136,-1.6149,-1.6154,-1.6147,-1.6145,-1.616,-1.6159,-1.6165,-1.6165,-1.6165,-1.6164,0,-1.5679,-1.5708,-1.5754,-1.5799,-1.5811,-1.5837,-1.5876,-1.5901,-1.5924,-1.5962,-1.5972,-1.6009,-1.6048,-1.6077,-1.6127,-1.6141,-1.6183,-1.6189,-1.6171,-1.6173,-1.6189,-1.6187,-1.6235,-1.6243,-1.6216,-1.6216,-1.6217,0,-1.5697,-1.5723,-1.577,-1.5792,-1.5814,-1.5848,-1.5872,-1.5901,-1.5925,-1.5969,-1.5989,-1.6029,-1.6062,-1.6123,-1.6155,-1.6193,-1.62,-1.6214,-1.6205,-1.6198,-1.6199,-1.6197,-1.62,-1.6215,-1.6215,-1.6215,-1.6215,0,-1.5725,-1.5738,-1.5772,-1.5811,-1.5839,-1.5871,-1.5903,-1.592,-1.5954,-1.598,-1.602,-1.6046,-1.6097,-1.6137,-1.6178,-1.6201,-1.6214,-1.6218,-1.6224,-1.6216,-1.6205,-1.6211,-1.6173,-1.6216,-1.6216,-1.6216,-1.6216,-1.6216,-1.5741,-1.5764,-1.5801,-1.5838,-1.5866,-1.5896,-1.5921,-1.5948,-1.5981,-1.6025,-1.604,-1.6081,-1.6117,-1.6174,-1.6198,-1.623,-1.6231,-1.6239,-1.6242,-1.6243,-1.6242,-1.62,-1.6238,-1.6238,-1.6238,-1.6238,-1.6238,0,-1.5769,-1.5794,-1.5828,-1.5873,-1.5902,-1.5911,-1.5947,-1.5971,-1.6006,-1.604,-1.6072,-1.6117,-1.6156,-1.619,-1.623,-1.6249,-1.6256,-1.6259,-1.6257,-1.6262,-1.624,-1.6231,-1.6252,-1.6252,-1.6252,-1.6252,-1.6252,-1.6252,-1.5788,-1.5828,-1.5845,-1.5899,-1.5924,-1.5964,-1.5984,-1.6011,-1.6038,-1.6088,-1.612,-1.6141,-1.6175,-1.6217,-1.6253,-1.6262,-1.6276,-1.6277,-1.6287,-1.6266,-1.6264,-1.6262,-1.6254,-1.628,-1.628,-1.6307,-1.6307,-1.6307]}]]